Weather History for KAEX - February, 2008

Change the Weather History Date:

Tuesday, February 26, 2008

  Actual Average Record
Temperature  
Mean Temperature 57 °F 55 °F  
Max Temperature 71 °F 66 °F 85 °F (1977)
Min Temperature 42 °F 44 °F 24 °F (1914)
Degree Days  
Heating Degree Days 8 11  
Month to date heating degree days 222 353  
Since 1 July heating degree days 1316 1644  
Growing Degree Days 6 (Base 50)    
Moisture  
Dew Point 40 °F    
Average Humidity 57    
Maximum Humidity 84    
Minimum Humidity 39    
Precipitation  
Precipitation 0.10 in 0.15 in 2.03 in (2001)
Month to date precipitation 8.07 4.14  
Year to date precipitation 13.26 9.36  
Snow  
Snow 0.00 in - T in (1952)
Month to date snowfall 0.0  
Since 1 July snowfall T  
Snow Depth 0.00 in    
Sea Level Pressure  
Sea Level Pressure 30.01 in    
Wind  
Wind Speed 14 mph (NW)    
Max Wind Speed 23 mph    
Max Gust Speed 32 mph    
Visibility 9 miles    
Events Rain    
T = Trace of Precipitation, MM = Missing Value Source: NWS Daily Summary

Daily Weather History Graph

Daily Weather History Graph

Search for Another Location

Airport or City:

Trip Planner

Search our weather history database for the weather conditions in past years. The results will help you decide how hot, cold, wet, or windy it might be!

Date:

Astronomy

Feb. 26, 2008 Rise Set
Actual Time 6:40 AM CST 6:05 PM CST
Civil Twilight 6:16 AM CST 6:30 PM CST
Nautical Twilight 5:48 AM CST 6:58 PM CST
Astronomical Twilight 5:20 AM CST 7:26 PM CST
Moon 11:36 PM CST (2/26) 9:21 AM CST (2/26)
Length of Visible Light 12h 13m
Length of Day
11h 24m
Waning Gibbous, 72% of the Moon is Illuminated
Feb 26
Waning Gibbous
Feb 28
Last Quarter
Mar 7
New
Mar 14
First Quarter
Mar 21
Full

Hourly Weather History & Observations

Time (CST) Temp. Windchill Dew Point Humidity Pressure Visibility Wind Dir Wind Speed Gust Speed Precip Events Conditions
12:53 AM 70.0 °F - 64.9 °F 84% 29.73 in 4.0 mi SW 8.1 mph - 0.01 in   Haze
1:18 AM 69.8 °F - 64.4 °F 83% 29.71 in 4.0 mi SW 10.4 mph - N/A   Haze
1:41 AM 66.2 °F - 59.0 °F 78% 29.74 in 5.0 mi WNW 16.1 mph 28.8 mph 0.01 in Rain Light Rain
1:50 AM 64.4 °F - 57.2 °F 77% 29.74 in 7.0 mi NW 17.3 mph 29.9 mph 0.01 in Rain Light Rain
1:53 AM 63.0 °F - 57.0 °F 81% 29.74 in 7.0 mi NNW 17.3 mph 29.9 mph 0.02 in Rain Rain
2:53 AM 62.1 °F - 53.1 °F 72% 29.78 in 10.0 mi NW 17.3 mph 32.2 mph 0.08 in Rain Light Rain
3:53 AM 59.0 °F - 48.9 °F 69% 29.84 in 10.0 mi WNW 16.1 mph 24.2 mph 0.00 in   Scattered Clouds
4:53 AM 54.0 °F - 43.0 °F 66% 29.86 in 10.0 mi NW 23.0 mph 32.2 mph N/A   Scattered Clouds
6:53 AM 51.1 °F - 39.0 °F 63% 29.91 in 10.0 mi NNW 16.1 mph 26.5 mph N/A   Partly Cloudy
7:53 AM 50.0 °F - 37.9 °F 63% 30.01 in 10.0 mi NNW 13.8 mph 23.0 mph N/A   Clear
8:53 AM 51.1 °F - 37.0 °F 59% 30.03 in 10.0 mi NNW 17.3 mph 28.8 mph N/A   Clear
9:53 AM 53.1 °F - 37.0 °F 55% 30.05 in 10.0 mi NW 20.7 mph 29.9 mph N/A   Clear
10:53 AM 55.0 °F - 39.0 °F 55% 30.08 in 10.0 mi NW 15.0 mph 24.2 mph N/A   Clear
11:53 AM 55.0 °F - 37.9 °F 53% 30.09 in 10.0 mi NW 20.7 mph 26.5 mph N/A   Partly Cloudy
12:53 PM 57.9 °F - 39.0 °F 49% 30.09 in 10.0 mi NW 18.4 mph 25.3 mph N/A   Partly Cloudy
1:53 PM 59.0 °F - 37.9 °F 46% 30.07 in 10.0 mi NW 21.9 mph 29.9 mph N/A   Clear
2:53 PM 59.0 °F - 37.9 °F 46% 30.08 in 10.0 mi NW 21.9 mph 31.1 mph N/A   Clear
3:53 PM 57.9 °F - 33.1 °F 39% 30.10 in 10.0 mi NNW 13.8 mph 28.8 mph N/A   Clear
4:53 PM 55.9 °F - 35.1 °F 45% 30.12 in 10.0 mi NW 17.3 mph 24.2 mph N/A   Clear
5:53 PM 52.0 °F - 28.0 °F 40% 30.14 in 10.0 mi NW 17.3 mph 26.5 mph N/A   Clear
6:53 PM 50.0 °F - 27.0 °F 41% 30.18 in 10.0 mi NNW 10.4 mph - N/A   Clear
7:53 PM 48.9 °F - 25.0 °F 39% 30.21 in 10.0 mi NNW 11.5 mph - N/A   Clear
8:53 PM 46.9 °F - 23.0 °F 39% 30.24 in 10.0 mi NNW 10.4 mph 19.6 mph N/A   Clear
9:53 PM 44.1 °F 39.0 °F 26.1 °F 49% 30.27 in 10.0 mi NW 9.2 mph - N/A   Clear
10:53 PM 43.0 °F 37.7 °F 23.0 °F 45% 30.27 in 10.0 mi NNW 9.2 mph - N/A   Clear
11:53 PM 42.1 °F 36.6 °F 21.9 °F 45% 30.27 in 10.0 mi NNW 9.2 mph - N/A   Clear